• In Uzbekistan
  • List of Countries
  • For 7 days
  • Water Temperature
  • Satellite Maps
  • Weather Map
  • Weather Widgets
  • user-avatar
    Login

    Hourly Weather Yulara

    Today, 19 January, Thursday

    Time Temperature Precipitation Wind Pressure Humidity
    00:00 +33°C° 0.6 mm 5 mps 712 mmHg 59%
    01:00 +32°C° 0 mm 5 mps 712 mmHg 61%
    02:00 +32°C° 0 mm 5 mps 712 mmHg 63%
    03:00 +30°C° 0 mm 5 mps 712 mmHg 65%
    04:00 +30°C° 0 mm 5 mps 712 mmHg 66%
    05:00 +30°C° 0 mm 5 mps 712 mmHg 67%
    06:00 +29°C° 0 mm 5 mps 712 mmHg 68%
    07:00 +30°C° 0 mm 6 mps 713 mmHg 64%
    08:00 +32°C° 0 mm 7 mps 713 mmHg 60%
    09:00 +33°C° 0 mm 7 mps 713 mmHg 55%
    10:00 +34°C° 0 mm 7 mps 713 mmHg 52%
    11:00 +35°C° 0 mm 7 mps 713 mmHg 49%
    12:00 +36°C° 0 mm 7 mps 712 mmHg 45%
    13:00 +36°C° 0 mm 7 mps 712 mmHg 44%
    14:00 +38°C° 0 mm 7 mps 711 mmHg 43%
    15:00 +38°C° 0 mm 7 mps 710 mmHg 43%
    16:00 +38°C° 0.1 mm 6 mps 710 mmHg 43%
    17:00 +38°C° 0.1 mm 6 mps 710 mmHg 43%
    18:00 +37°C° 0.1 mm 5 mps 710 mmHg 43%
    19:00 +36°C° 1.2 mm 5 mps 710 mmHg 47%
    20:00 +35°C° 1.2 mm 5 mps 711 mmHg 51%
    21:00 +34°C° 1.2 mm 4 mps 711 mmHg 55%
    22:00 +33°C° 0.9 mm 5 mps 711 mmHg 57%
    23:00 +33°C° 0.9 mm 5 mps 711 mmHg 59%

    Tomorrow, 20 January, Friday

    Time Temperature Precipitation Wind Pressure Humidity
    00:00 +32°C° 0.9 mm 5 mps 711 mmHg 61%
    01:00 +32°C° 0.1 mm 5 mps 711 mmHg 63%
    02:00 +30°C° 0.1 mm 5 mps 711 mmHg 64%
    03:00 +30°C° 0.1 mm 5 mps 710 mmHg 66%
    04:00 +30°C° 0 mm 4 mps 711 mmHg 67%
    05:00 +29°C° 0 mm 4 mps 711 mmHg 69%
    06:00 +29°C° 0 mm 4 mps 711 mmHg 71%
    07:00 +30°C° 0.7 mm 5 mps 711 mmHg 67%
    08:00 +32°C° 0.7 mm 5 mps 712 mmHg 63%
    09:00 +33°C° 0.7 mm 6 mps 712 mmHg 59%
    10:00 +34°C° 1 mm 6 mps 712 mmHg 54%
    11:00 +35°C° 1 mm 6 mps 712 mmHg 50%
    12:00 +36°C° 1 mm 6 mps 712 mmHg 46%
    13:00 +36°C° 0.3 mm 5 mps 712 mmHg 44%
    14:00 +37°C° 0.3 mm 5 mps 711 mmHg 42%
    15:00 +37°C° 0.3 mm 4 mps 711 mmHg 40%
    16:00 +37°C° 0.7 mm 4 mps 711 mmHg 41%
    17:00 +36°C° 0.7 mm 3 mps 711 mmHg 42%
    18:00 +36°C° 0.7 mm 3 mps 711 mmHg 43%
    19:00 +35°C° 1.4 mm 3 mps 711 mmHg 48%
    20:00 +34°C° 1.4 mm 3 mps 712 mmHg 54%
    21:00 +33°C° 1.4 mm 4 mps 712 mmHg 59%
    22:00 +33°C° 0.5 mm 3 mps 712 mmHg 61%
    23:00 +31°C° 0.5 mm 3 mps 712 mmHg 63%

    Day after tomorrow, 21 January, Saturday

    Time Temperature Precipitation Wind Pressure Humidity
    00:00 +31°C° 0.5 mm 2 mps 712 mmHg 65%
    01:00 +31°C° 0.2 mm 2 mps 712 mmHg 65%
    02:00 +31°C° 0.2 mm 2 mps 712 mmHg 66%
    03:00 +30°C° 0.2 mm 2 mps 712 mmHg 67%
    04:00 +30°C° 0.7 mm 2 mps 712 mmHg 68%
    05:00 +30°C° 0.7 mm 2 mps 713 mmHg 68%
    06:00 +30°C° 0.7 mm 2 mps 713 mmHg 69%
    07:00 +31°C° 0.3 mm 2 mps 713 mmHg 64%
    08:00 +31°C° 0.3 mm 2 mps 714 mmHg 59%
    09:00 +32°C° 0.3 mm 2 mps 714 mmHg 53%
    10:00 +34°C° 0.2 mm 2 mps 714 mmHg 50%
    11:00 +35°C° 0.2 mm 3 mps 714 mmHg 46%
    12:00 +36°C° 0.2 mm 3 mps 714 mmHg 42%
    13:00 +37°C° 0 mm 3 mps 713 mmHg 41%
    14:00 +37°C° 0 mm 3 mps 713 mmHg 39%
    15:00 +38°C° 0 mm 3 mps 712 mmHg 38%
    16:00 +38°C° 0.5 mm 3 mps 713 mmHg 38%
    17:00 +38°C° 0.5 mm 3 mps 713 mmHg 38%
    18:00 +38°C° 0.5 mm 3 mps 713 mmHg 39%
    19:00 +37°C° 0.9 mm 2 mps 713 mmHg 42%
    20:00 +36°C° 0.9 mm 2 mps 714 mmHg 45%
    21:00 +35°C° 0.9 mm 1 mps 714 mmHg 48%
    22:00 +34°C° 0.1 mm 1 mps 714 mmHg 49%
    23:00 +34°C° 0.1 mm 1 mps 714 mmHg 50%

    22 January, Sunday

    Time Temperature Precipitation Wind Pressure Humidity
    00:00 +34°C° 0.1 mm 1 mps 714 mmHg 52%
    01:00 +33°C° 0.4 mm 1 mps 714 mmHg 53%
    02:00 +34°C° 0.4 mm 2 mps 714 mmHg 54%
    03:00 +32°C° 0.4 mm 2 mps 713 mmHg 56%
    04:00 +32°C° 0 mm 2 mps 714 mmHg 57%
    05:00 +31°C° 0 mm 1 mps 714 mmHg 59%
    06:00 +31°C° 0 mm 1 mps 714 mmHg 61%
    07:00 +32°C° 0.1 mm 2 mps 714 mmHg 56%
    08:00 +34°C° 0.1 mm 2 mps 715 mmHg 52%
    09:00 +35°C° 0.1 mm 3 mps 715 mmHg 47%
    10:00 +36°C° 0 mm 3 mps 715 mmHg 44%
    11:00 +37°C° 0 mm 3 mps 715 mmHg 40%
    12:00 +38°C° 0 mm 3 mps 714 mmHg 37%
    13:00 +38°C° 0.1 mm 3 mps 714 mmHg 36%
    14:00 +38°C° 0.1 mm 3 mps 714 mmHg 35%
    15:00 +38°C° 0.1 mm 3 mps 713 mmHg 34%
    16:00 +38°C° 0 mm 3 mps 713 mmHg 33%
    17:00 +38°C° 0 mm 2 mps 713 mmHg 33%
    18:00 +38°C° 0 mm 2 mps 713 mmHg 33%
    19:00 +37°C° 0 mm 2 mps 713 mmHg 36%
    20:00 +37°C° 0 mm 2 mps 714 mmHg 38%
    21:00 +36°C° 0 mm 2 mps 714 mmHg 40%
    22:00 +35°C° 0 mm 2 mps 714 mmHg 42%
    23:00 +35°C° 0 mm 2 mps 714 mmHg 43%

    23 January, Monday

    Time Temperature Precipitation Wind Pressure Humidity
    00:00 +34°C° 0 mm 3 mps 714 mmHg 45%
    01:00 +34°C° 0 mm 3 mps 713 mmHg 47%
    02:00 +33°C° 0 mm 4 mps 713 mmHg 49%
    03:00 +33°C° 0 mm 5 mps 713 mmHg 51%
    04:00 +32°C° 0 mm 5 mps 713 mmHg 53%
    05:00 +32°C° 0 mm 6 mps 713 mmHg 56%
    06:00 +30°C° 0 mm 6 mps 713 mmHg 59%
    07:00 +32°C° 0 mm 6 mps 714 mmHg 57%
    08:00 +32°C° 0 mm 6 mps 714 mmHg 56%
    09:00 +33°C° 0 mm 5 mps 715 mmHg 54%
    10:00 +34°C° 0 mm 5 mps 715 mmHg 49%
    11:00 +35°C° 0 mm 5 mps 714 mmHg 43%
    12:00 +37°C° 0 mm 5 mps 714 mmHg 38%
    13:00 +38°C° 0 mm 4 mps 714 mmHg 36%
    14:00 +38°C° 0 mm 4 mps 713 mmHg 35%
    15:00 +40°C° 0 mm 4 mps 713 mmHg 33%
    16:00 +38°C° 0 mm 3 mps 713 mmHg 33%
    17:00 +38°C° 0 mm 3 mps 713 mmHg 33%
    18:00 +38°C° 0 mm 3 mps 713 mmHg 33%
    19:00 +37°C° 0 mm 3 mps 714 mmHg 35%
    20:00 +37°C° 0 mm 3 mps 714 mmHg 37%
    21:00 +36°C° 0 mm 3 mps 715 mmHg 39%
    22:00 +36°C° 0.3 mm 2 mps 715 mmHg 42%
    23:00 +35°C° 0.3 mm 2 mps 715 mmHg 45%

    24 January, Tuesday

    Time Temperature Precipitation Wind Pressure Humidity
    00:00 +33°C° 0.3 mm 1 mps 714 mmHg 49%
    01:00 +34°C° 0.1 mm 2 mps 714 mmHg 50%
    02:00 +33°C° 0.1 mm 3 mps 714 mmHg 52%
    03:00 +33°C° 0.1 mm 4 mps 714 mmHg 53%
    04:00 +32°C° 0.1 mm 4 mps 714 mmHg 56%
    05:00 +32°C° 0.1 mm 4 mps 715 mmHg 59%
    06:00 +30°C° 0.1 mm 4 mps 715 mmHg 62%
    07:00 +32°C° 0.5 mm 6 mps 716 mmHg 60%
    08:00 +32°C° 0.5 mm 7 mps 716 mmHg 58%
    09:00 +33°C° 0.5 mm 8 mps 717 mmHg 56%
    10:00 +34°C° 0.1 mm 7 mps 717 mmHg 52%
    11:00 +35°C° 0.1 mm 7 mps 717 mmHg 48%
    12:00 +36°C° 0.1 mm 6 mps 717 mmHg 45%
    13:00 +36°C° 0.1 mm 7 mps 716 mmHg 44%
    14:00 +36°C° 0.1 mm 7 mps 716 mmHg 43%
    15:00 +36°C° 0.1 mm 7 mps 716 mmHg 43%
    16:00 +35°C° 0 mm 8 mps 716 mmHg 45%
    17:00 +34°C° 0 mm 8 mps 716 mmHg 48%
    18:00 +33°C° 0 mm 9 mps 717 mmHg 50%
    19:00 +32°C° 0 mm 9 mps 717 mmHg 53%
    20:00 +31°C° 0 mm 8 mps 717 mmHg 55%
    21:00 +29°C° 0 mm 8 mps 718 mmHg 58%
    22:00 +29°C° 0 mm 8 mps 718 mmHg 59%
    23:00 +29°C° 0 mm 8 mps 718 mmHg 60%
    Show more